Green Tint  
  • Solar, W/Third Visor Band, Ram's Head Logo, W/Humidity Sensor
  • Rain Sensor, Solar, W/Third Visor Band, Ram's Head Logo, W/Humidity Sensor
  • Solar, W/Third Visor Band, W/Humidity Sensor, Aftermarket
  • Solar, W/Third Visor Band, Ram's Head Logo
  • Rain Sensor, Solar, W/Third Visor Band, Ram's Head Logo
  • Solar, Aftermarket, W/Third Visor Band
  • Rain Sensor, Solar, W/Third Visor Band, Aftermarket
  • Rain Sensor, Solar, W/Third Visor Band, W/Humidity Sensor, Aftermarket
 
  • Dodge Ram 1500 Pickup Emergency Glass Repair realizes the importance and safety with regard to your Dodge Ram 1500s auto glass, and it is the goal to help you quickly and cost effectively get your issue solved. Emergency Glass Repair works with expert, local glass professionals in your area, and they can assist you with whatever auto glass problem (chip, crack or full replacement) you have by simply filling out the free Auto Glass Repair & Replacement Quote form.Your Dodge Ram 1500 may need a full windshield replacement, but sometimes preventative measures can save you, the consumer, a lot of money. The auto glass experts use the latest technology to fully repair chips or cracks that tend to lead to bigger glass damage if not taken care of right away. Damage to a windshield impairs a drivers vision, and one of Emergency Glass Repair goals is to fix any safety hazard you may have with your auto glass on your Dodge Ram 1500. There are many models of the Dodge Ram 1500, with them consisting of the Dodge Ram 1500 Crew Cab Laramie Longhorn, the Dodge Ram 1500 Laramie, the Dodge Ram 1500 Crew Cab Sport, the Dodge Ram 1500 Crew Cab Outdoorsman, the Dodge Ram 1500 Quad Cab SLT, the Dodge Ram 1500 Regular Cab Express, the Dodge Ram 1500 Regular Cab Tradesman, and the Dodge Ram 1500 Regular Cab ST. Glass-wise, the models are similar, with a front windshield, rear windshield, and four power windows. The only difference is that the Express, Tradesman and ST models are two-door vehicles, making them only have two power windows. For any of your Dodge Ram 1500 windshield replacement, Dodge Ram 1500 windshield repair, or Dodge Ram 1500 window needs simply fill out the free Auto Glass Repair & Replacement Quote form and a trained auto-glass specialist in your area can quickly give you an estimate. The local auto glass companies offer quality glass and repair while being cost effective, but with that being said, the Auto Glass Repair & Replacement Quote form is a great means for price comparison. Its quick and easy, and designed for your convenience. It is the goal of Emergency Glass Repair to quickly get your Dodge Ram 1500 back on the road, with the windshield and all windows clear, not only for your safety, but for your viewing pleasure as you drive down the road.

RECENT QUOTES

What you see here are REAL quotes for REAL people all over the country. Don‘t get left out, fill out your information below to get a quote.

Vehicle Part Quote Date Location
2010 Dodge Ram 1500 Back glass-3 piece slider-privacy tinted $530.88 03/22/19 Lithonia, GA 30058
2003 Dodge Ram 1500 Windshield $287.94 03/10/19 Somerset, KY 42501
2002 Dodge Ram 1500 Windshield $299.52 03/10/19 Andrews, SC 29510
2007 Dodge Ram 1500 Windshield $299.52 03/09/19 Morrison, MO 65061
2004 Dodge Ram 1500 Windshield $284.58 03/03/19 Apple River, IL 61001
2007 Dodge Ram 1500 Windshield $279.09 02/28/19 Blue Gap, AZ 86520
1999 Dodge Ram 1500 Windshield $280.86 02/21/19 Byhalia, MS 38611
2006 Dodge Ram 1500 Windshield $273.80 02/13/19 Cantonment, FL 32533
2001 Dodge Ram 1500 Windshield $304.92 02/13/19 Clarksville, IN 47129
2009 Dodge Ram 1500 Windshield with Logo $417.48 02/06/19 Kyle, TX 78640
2003 Dodge Ram 1500 Driver rear door glass $262.10 02/05/19 Miami, FL 33167
2003 Dodge Ram 1500 Windshield $282.55 01/29/19 Tempe, AZ 85283
2003 Dodge Ram 1500 Windshield $282.54 01/27/19 Tempe, AZ 85283
1997 Dodge Ram 1500 Windshield $272.40 01/07/19 Emporia, KS 66801
2002 Dodge Ram 1500 Windshield $280.42 01/04/19 Petersburg, VA 23803
2007 Dodge Ram 1500 Windshield $275.76 12/28/18 Hinesburg, VT 05461
2007 Dodge Ram 1500 Windshield $280.42 12/27/18 Boyce, LA 71409
1997 Dodge Ram 1500 Windshield $283.26 12/22/18 Kalkaska, MI 49646
1999 Dodge Ram 1500 Windshield $290.33 11/16/18 Cottonwood, CA 96022
2000 Dodge Ram 1500 Windshield $305.65 10/19/18 Loveland, CO 80537
2003 Dodge Ram 1500 Windshield with Logo $404.37 10/13/18 Bronson, FL 32621
1996 Dodge Ram 1500 Windshield with Night Vision $286.93 10/12/18 Brighton, IA 52540
2007 Dodge Ram 1500 Windshield $272.02 09/28/18 Rifle, CO 81650
2001 Dodge Ram 1500 Windshield $313.84 09/03/18 Crawfordsville, IN 47933
1997 Dodge Ram 1500 Windshield $287.80 08/25/18 Willow, AK 99688
2002 Dodge Ram 1500 Windshield $281.47 08/24/18 Pueblo, CO 81001
2002 Dodge Ram 1500 Windshield $281.47 08/18/18 Toms River, NJ 08753
2001 Dodge Ram 1500 Windshield $313.84 08/01/18 Deridder, LA 70634
2006 Dodge Ram 1500 Windshield $281.47 07/27/18 Albuquerque, NM 87105
2007 Dodge Ram 1500 Windshield $276.75 07/27/18 Knoxville, TN 37918
2007 Dodge Ram 1500 Windshield $281.47 07/26/18 Knoxville, TN 37918
2001 Dodge Ram 1500 Windshield $313.84 07/24/18 Newport, ME 04953
2003 Dodge Ram 1500 Back glass $362.02 07/22/18 Dowelltown, TN 37059
1999 Dodge Ram 1500 Windshield $199.00 07/12/18 Cypress, TX 77429
2002 Dodge Ram 1500 Back glass-3 piece slider-privacy tinted $552.97 07/09/18 Milwaukee, WI 53208
2008 Dodge Ram 1500 Windshield $280.30 07/06/18 Sun City, AZ 85351
2001 Dodge Ram 1500 Windshield $313.84 07/02/18 Laurel Hill, FL 32567
2005 Dodge Ram 1500 Windshield $281.47 07/01/18 Beverly Hills, CA 90210
2007 Dodge Ram 1500 Passenger front door glass $275.17 06/16/18 Frankfort, IL 60423
1996 Dodge Ram 1500 Windshield $199.00 06/02/18 Sacramento, CA 95820
2004 Dodge Ram 1500 Windshield $279.08 06/02/18 Petty, TX 75470
2005 Dodge Ram 1500 Windshield with bronze tint $280.18 05/18/18 Saint Marys, GA 31558
2006 Dodge Ram 1500 Windshield $282.27 04/27/18 Dawsonville, GA 30534
2010 Dodge Ram 1500 Windshield $279.46 04/17/18 Tularosa, NM 88352
1997 Dodge Ram 1500 Windshield $286.87 04/14/18 Hanson, KY 42413
2002 Dodge Ram 1500 Windshield $285.18 04/08/18 Harlem, GA 30814
1997 Dodge Ram 1500 Windshield $286.87 04/02/18 Matagorda, TX 77457
2002 Dodge Ram 1500 Windshield $284.13 03/29/18 Gallatin, TN 37066
2005 Dodge Ram 1500 Back glass-non heated-privacy tint-no defrost $341.40 03/25/18 Chesapeake, VA 23323
2010 Dodge Ram 1500 Windshield with Logo $406.54 03/22/18 Mechanicsville, VA 23111
2002 Dodge Ram 1500 Windshield $284.13 03/20/18 Bessemer, AL 35023
2007 Dodge Ram 1500 Windshield $284.13 03/07/18 Arlington, TN 38002
2003 Dodge Ram 1500 Windshield $278.26 03/04/18 Queensbury, NY 12804
2001 Dodge Ram 1500 Windshield $314.89 02/06/18 Phoenix, AZ 85053
1994 Dodge Ram 1500 Windshield $283.72 01/28/18 Indianapolis, IN 46219
2001 Dodge Ram 1500 Windshield $219.00 01/26/18 Cincinnati, OH 45241
2001 Dodge Ram 1500 Windshield $302.77 01/23/18 Alamogordo, NM 88310
2007 Dodge Ram 1500 Windshield $268.88 01/17/18 Levelland, TX 79336
2009 Dodge Ram 1500 Windshield $280.41 01/14/18 Patterson, LA 70392
2003 Dodge Ram 1500 Windshield $282.25 01/09/18 New Braunfels, TX 78132
2004 Dodge Ram 1500 Windshield $282.25 01/03/18 Akron, OH 44314
1998 Dodge Ram 1500 Windshield $287.04 12/30/17 Casper, WY 82609
2001 Dodge Ram 1500 Passenger front door glass $265.36 12/27/17 Orlando, FL 32839
2001 Dodge Ram 1500 Windshield $314.89 12/23/17 Wyandotte, OK 74370
2006 Dodge Ram 1500 Windshield $279.52 12/21/17 Durant, OK 74701
2001 Dodge Ram 1500 Windshield $314.89 12/17/17 Windsor, NY 13865
2002 Dodge Ram 1500 Door glass-sliding-driver side $268.29 12/16/17 Danese, WV 25831
2003 Dodge Ram 1500 Windshield $282.25 12/11/17 North Hollywood, CA 91606
2009 Dodge Ram 1500 Windshield $280.41 12/11/17 San Antonio, TX 78209
1998 Dodge Ram 1500 Windshield $287.04 12/05/17 Prairieville, LA 70769
2004 Dodge Ram 1500 Windshield $278.47 11/28/17 Victoria, VA 23974
1994 Dodge Ram 1500 Windshield $175.00 11/19/17 Arlington Heights, IL 60005
1997 Dodge Ram 1500 Windshield $287.04 11/16/17 Paradise, PA 17562
2004 Dodge Ram 1500 Windshield $278.47 11/13/17 Queen Creek, AZ 85142
2004 Dodge Ram 1500 Windshield $282.25 10/29/17 Port Arthur, TX 77640
2001 Dodge Ram 1500 Windshield $291.42 10/17/17 Centerview, MO 64019
2003 Dodge Ram 1500 Back glass $318.25 10/06/17 Montgomery, TX 77356
2004 Dodge Ram 1500 Back glass-heated-with defrost-clear $318.25 10/05/17 Marion, OH 43302
2002 Dodge Ram 1500 Windshield $284.35 10/03/17 Benton, AR 72015
2010 Dodge Ram 1500 Windshield with Logo $282.51 09/30/17 Jacksonville, FL 32244
1999 Dodge Ram 1500 Windshield $290.23 09/28/17 Shingle Springs, CA 95682
2001 Dodge Ram 1500 Windshield $291.42 09/26/17 Bessemer, AL 35022
2007 Dodge Ram 1500 Back glass $318.25 09/24/17 Petersburg, NY 12138
2008 Dodge Ram 1500 Windshield $282.28 09/24/17 Elk City, OK 73644
2009 Dodge Ram 1500 Windshield with Logo $407.25 09/03/17 Bismarck, AR 71929
2007 Dodge Ram 1500 Windshield $268.62 08/19/17 Mesa, AZ 85202
2000 Dodge Ram 1500 Windshield $278.48 08/07/17 Isle La Motte, VT 05463
2005 Dodge Ram 1500 Back glass $305.52 07/30/17 North Little Rock, AR 72117
2008 Dodge Ram 1500 Windshield $270.18 07/25/17 Phoenix, AZ 85032
2006 Dodge Ram 1500 Back glass-non heated-privacy tint-no defrost $333.86 07/22/17 West, MS 39192
2006 Dodge Ram 1500 Windshield $268.89 07/21/17 Monmouth, ME 04259
2002 Dodge Ram 1500 Back glass-3 piece slider-privacy tinted $325.00 07/20/17 Fullerton, CA 92832
1995 Dodge Ram 1500 Windshield $277.40 07/19/17 Richwood, WV 26261
1999 Dodge Ram 1500 Windshield $277.40 07/19/17 Monson, MA 01057
2005 Dodge Ram 1500 Back glass $302.31 07/12/17 Shorter, AL 36075
2000 Dodge Ram 1500 Windshield with rain sensor $278.48 07/10/17 Cheyenne, WY 82007
2010 Dodge Ram 1500 Back glass-passenger side $268.12 07/06/17 Euless, TX 76039
2006 Dodge Ram 1500 Windshield $270.18 07/03/17 Lubbock, TX 79410
2004 Dodge Ram 1500 Windshield solar coated with third visor frit $217.30 07/03/17 Hyattsville, MD 20783
2004 Dodge Ram 1500 Windshield $281.20 06/26/17 Albany, GA 31707
2005 Dodge Ram 1500 Windshield $277.72 06/21/17 Dallastown, PA 17313
1999 Dodge Ram 1500 Windshield $296.86 06/16/17 Rixeyville, VA 22737
2002 Dodge Ram 1500 Windshield $281.20 06/07/17 Saint Louis, MO 63105
2002 Dodge Ram 1500 Windshield $185.00 06/01/17 Las Vegas, NV 89183
2004 Dodge Ram 1500 Windshield with Night Vision $261.55 05/22/17 Kingfisher, OK 73750
1999 Dodge Ram 1500 Windshield $266.67 05/20/17 Dayton, TX 77535
2004 Dodge Ram 1500 Windshield with Night Vision $258.39 05/15/17 Youngstown, OH 44505
1996 Dodge Ram 1500 Windshield $306.57 05/14/17 Warren, MI 48091
2009 Dodge Ram 1500 Back glass-non heated-privacy tint-no defrost $314.58 05/13/17 Bakersfield, CA 93306
2001 Dodge Ram 1500 Windshield $267.98 05/12/17 Cumberland, KY 40823
2006 Dodge Ram 1500 Windshield $258.39 05/10/17 Houma, LA 70364
2006 Dodge Ram 1500 Windshield $261.56 05/07/17 Buffalo, WY 82834
2006 Dodge Ram 1500 Windshield $258.39 05/02/17 Eau Claire, WI 54701
2000 Dodge Ram 1500 Windshield $267.98 04/29/17 San Manuel, AZ 85631
2001 Dodge Ram 1500 Windshield $267.98 04/28/17 Kissee Mills, MO 65680
2010 Dodge Ram 1500 Windshield $257.53 04/25/17 Centreville, MD 21617
1999 Dodge Ram 1500 Windshield $266.67 04/23/17 Ellettsville, IN 47429
2003 Dodge Ram 1500 Windshield $258.39 04/19/17 Franklin, TN 37064
2004 Dodge Ram 1500 Windshield $257.58 04/13/17 Spencer, NC 28159
2005 Dodge Ram 1500 Windshield $252.33 04/11/17 Huntsville, TX 77320
2010 Dodge Ram 1500 Windshield with Logo $250.18 04/11/17 Lincoln, NE 68522
1997 Dodge Ram 1500 Windshield $259.55 04/10/17 Fremont, WI 54940
1997 Dodge Ram 1500 Windshield $259.55 04/09/17 Cambridge Springs, PA 16403
2005 Dodge Ram 1500 Windshield $252.33 04/06/17 Tamaqua, PA 18252
2008 Dodge Ram 1500 Back glass-3 piece slider-privacy tinted $332.43 04/05/17 Bastrop, LA 71220
2003 Dodge Ram 1500 Back glass $307.13 04/02/17 Little Rock, AR 72206
2004 Dodge Ram 1500 Windshield $271.78 03/29/17 Princeton, TX 75407
2002 Dodge Ram 1500 Windshield $273.85 03/27/17 Ozark, MO 65721
2003 Dodge Ram 1500 Windshield $271.78 03/26/17 Ellwood City, PA 16117
2003 Dodge Ram 1500 Windshield $273.85 03/20/17 Casa Grande, AZ 85122
1996 Dodge Ram 1500 Windshield $279.73 03/19/17 Greenville, SC 29617
2005 Dodge Ram 1500 Windshield $145.00 03/14/17 Kansas City, KS 66106
2008 Dodge Ram 1500 Windshield $271.78 03/14/17 Carter Lake, IA 51510
2002 Dodge Ram 1500 Windshield $273.85 03/13/17 West Henrietta, NY 14586
2001 Dodge Ram 1500 Windshield $280.92 03/12/17 Bryant, AL 35958
2003 Dodge Ram 1500 Windshield $273.85 03/09/17 Perham, MN 56573
2001 Dodge Ram 1500 Windshield $280.91 03/07/17 Egan, LA 70531
1998 Dodge Ram 1500 Windshield $279.80 02/28/17 Portal, GA 30450
2006 Dodge Ram 1500 Back glass-heated-privacy tint-left $332.43 02/28/17 West Columbia, SC 29172
1999 Dodge Ram 1500 Windshield $279.73 02/27/17 , 27492
2003 Dodge Ram 1500 Driver rear door glass $256.69 02/27/17 Paris, KY 40361
2003 Dodge Ram 1500 Windshield $273.85 02/27/17 , 13356
2001 Dodge Ram 1500 Windshield $280.92 02/25/17 Delaware, OH 43015
2005 Dodge Ram 1500 Windshield $150.00 02/18/17 Buena Park, CA 90621
1998 Dodge Ram 1500 Windshield $288.13 02/17/17 Bardstown, KY 40004
1998 Dodge Ram 1500 Windshield with Night Vision $179.00 02/17/17 Sacramento, CA 95828
2009 Dodge Ram 1500 Windshield with Logo $404.69 02/17/17 Greensburg, PA 15601
2010 Dodge Ram 1500 Windshield with Logo $277.83 02/15/17 San Bernardino, CA 92407
2001 Dodge Ram 1500 Windshield $289.32 02/15/17 Sulphur, LA 70663
2005 Dodge Ram 1500 Windshield $280.18 02/14/17 Durant, OK 74701
2001 Dodge Ram 1500 Windshield $289.32 02/10/17 Owensboro, KY 42303
2006 Dodge Ram 1500 Windshield $280.18 02/09/17 Somersworth, NH 03878
1999 Dodge Ram 1500 Windshield $288.13 02/01/17 La Center, WA 98629
2008 Dodge Ram 1500 Windshield $278.77 01/31/17 Baytown, TX 77521
1997 Dodge Ram 1500 Windshield $288.13 01/25/17 Cape Coral, FL 33914
2002 Dodge Ram 1500 Windshield $282.25 01/24/17 Humboldt, TN 38343
2001 Dodge Ram 1500 Windshield $289.31 01/23/17 Norman, OK 73026
2008 Dodge Ram 1500 Windshield with Logo $398.55 01/23/17 Woodstock, VA 22664
1998 Dodge Ram 1500 Windshield $288.13 01/21/17 Saint Joseph, MO 64501
2010 Dodge Ram 1500 Back glass-3 piece slider-privacy tinted $596.94 01/21/17 Lubbock, TX 79415
1996 Dodge Ram 1500 Windshield $288.13 01/20/17 Great Cacapon, WV 25422
1994 Dodge Ram 1500 Windshield $288.14 01/20/17 Farmington, NM 87401
2005 Dodge Ram 1500 Windshield $280.18 01/19/17 De Berry, TX 75639
2007 Dodge Ram 1500 Windshield $278.77 01/17/17 Colfax, CA 95713
2002 Dodge Ram 1500 Windshield $282.25 01/17/17 Anderson, IN 46011
2007 Dodge Ram 1500 Back glass-heated-dark privacy tint-with defrost $352.98 01/16/17 Silver Spring, MD 20901
2003 Dodge Ram 1500 Windshield with electrochromic mirror $280.18 01/15/17 Ocean City, MD 21842
2006 Dodge Ram 1500 Windshield $280.18 01/14/17 Ozark, MO 65721
1998 Dodge Ram 1500 Windshield $288.13 01/13/17 Salisbury, NC 28146
2002 Dodge Ram 1500 Windshield $282.25 01/13/17 Ocklawaha, FL 32179
2001 Dodge Ram 1500 Windshield $289.32 01/13/17 , 44213
2008 Dodge Ram 1500 Windshield with heads up display (HUD) $280.18 01/12/17 Dothan, AL 36301
2000 Dodge Ram 1500 Windshield $289.31 01/11/17 Marysville, CA 95901
1994 Dodge Ram 1500 Windshield $268.41 01/08/17 Las Vegas, NV 89110
1996 Dodge Ram 1500 Windshield $149.00 01/03/17 Spring, TX 77382
2010 Dodge Ram 1500 Windshield $278.30 01/01/17 Spokane, WA 99204
1997 Dodge Ram 1500 Windshield $287.59 12/30/16 Eastpointe, MI 48021
2004 Dodge Ram 1500 Windshield $168.60 12/28/16 Tempe, AZ 85283
2002 Dodge Ram 1500 Windshield $280.95 12/28/16 Bakersfield, CA 93309
2005 Dodge Ram 1500 Windshield $279.13 12/23/16 Strattanville, PA 16258
1996 Dodge Ram 1500 Windshield $287.59 12/20/16 Glenside, PA 19038
2002 Dodge Ram 1500 Windshield $280.95 12/20/16 Odessa, FL 33556
2001 Dodge Ram 1500 Windshield $288.27 12/19/16 White Deer, TX 79097
2007 Dodge Ram 1500 Windshield $279.13 12/15/16 Robstown, TX 78380
1997 Dodge Ram 1500 Windshield $188.60 12/13/16 Mesa, AZ 85207
2003 Dodge Ram 1500 Windshield $276.83 12/13/16 Baton Rouge, LA 70811
2001 Dodge Ram 1500 Windshield $288.27 12/08/16 Noble, OK 73068
2010 Dodge Ram 1500 Windshield $278.92 12/06/16 Fairhope, AL 36532
2000 Dodge Ram 1500 Windshield $288.27 12/04/16 Sylmar, CA 91342
1996 Dodge Ram 1500 Windshield $287.59 12/01/16 Osgood, IN 47037
2000 Dodge Ram 1500 Windshield $288.27 12/01/16 Eldon, MO 65026
1999 Dodge Ram 1500 Windshield $287.59 11/29/16 Tampa, FL 33610
1997 Dodge Ram 1500 Back glass $439.97 11/27/16 Eudora, KS 66025
1998 Dodge Ram 1500 Back glass $303.28 11/26/16 Hudson, FL 34669
1996 Dodge Ram 1500 Windshield $287.59 11/24/16 Midlothian, TX 76065
2004 Dodge Ram 1500 Windshield $276.83 11/24/16 Chandler, TX 75758
2000 Dodge Ram 1500 Windshield $288.27 11/23/16 Birmingham, AL 35211
1998 Dodge Ram 1500 Windshield $287.59 11/23/16 , 12333
1996 Dodge Ram 1500 Windshield $287.59 11/23/16 Virginia Beach, VA 23462
2003 Dodge Ram 1500 Windshield $276.83 11/21/16 Mulkeytown, IL 62865
Leave Comment